Flag Weather past 2 weeks in Roanoke, Virginia, U.S.A.

Now
35 °F

Mostly cloudy.


Feels Like: 32 °F
Forecast: 33 / 43 °F
Wind: 3 mph from Northeast

Location: Roanoke Regional Airport

Current Time: Nov 27, 2014 at 6:13:30 AM

Latest Report: Nov 27, 2014 at 5:54 AM


Visibility: 9 mi

Pressure: 30.02 "Hg

Humidity: 92%

Dew point: 33 °F

Location of RoanokeLocation

Historic Weather in Roanoke — Graph

°F

Roanoke temperature yesterday

Maximum temperature yesterday: 44 °F (at 12:54 AM)
Minimum temperature yesterday: 32 °F (at 9:01 AM)
Average temperature yesterday: 37 °F

Past Weeks' High & Low Weather Summary

 TemperatureHumidityPressure
High71 °F (Nov 24, 2:54 PM)100% (Nov 26, 9:01 AM)30.55 "Hg (Nov 26, 9:01 AM)
Low19 °F (Nov 19, 6:54 AM)19% (Nov 21, 2:54 PM)29.62 "Hg (Nov 17, 1:54 PM)
Average39 °F56%30.14 "Hg
* Reported Nov 12 4:54 AM — Nov 27 4:54 AM, Roanoke, Weather by CustomWeather, © 2014

Note: Actual official high and low records may vary slightly from our data, if they occured in-between our weather recording intervals... More about our weather records

Advertising

Roanoke weather history for previous 24 hours

 ConditionsComfort  
Time TempWeatherWind HumidityBarometerVisibility
4:54 AM
Nov 27
36 °FOvercast.No wind97%30.02 "Hg7 mi
3:54 AM36 °FMostly cloudy.6 mph92%30.01 "Hg9 mi
2:54 AM35 °FOvercast.No wind96%30.03 "Hg8 mi
1:54 AM37 °FOvercast.No wind93%30.04 "Hg10 mi
12:54 AM36 °FOvercast.No wind92%30.04 "Hg10 mi
11:54 PM
Nov 26
36 °FOvercast.No wind89%30.03 "Hg10 mi
10:54 PM35 °FOvercast.6 mph92%30.03 "Hg10 mi
9:54 PM37 °FOvercast.No wind89%30.05 "Hg10 mi
8:54 PM39 °FOvercast.No wind86%30.04 "Hg10 mi
7:54 PM37 °FMostly cloudy.6 mph89%30.04 "Hg10 mi
6:54 PM38 °FPartly cloudy.No wind93%30.04 "Hg10 mi
5:54 PM38 °FOvercast.5 mph90%30.02 "Hg10 mi
4:54 PM38 °FPartly sunny.6 mph90%30.01 "Hg10 mi
3:54 PM40 °FScattered clouds.No wind86%29.99 "Hg10 mi
2:54 PM39 °FPartly sunny.No wind86%29.99 "Hg10 mi
1:54 PM37 °FMostly cloudy.3 mph89%29.99 "Hg10 mi
12:54 PM35 °FLight rain. Mostly cloudy.6 mph92%30.00 "Hg3 mi
11:54 AM33 °FLight rain. Fog.No wind96%30.01 "Hg2 mi
10:54 AM32 °FLight snow. Ice fog.No wind100%30.05 "Hg1 mi
9:54 AM33 °FLight snow. Fog.No wind96%30.06 "Hg1 mi
9:01 AM32 °FLight snow. Ice fog.No wind100%30.06 "Hg1 mi
7:54 AM34 °FLight rain. Overcast.5 mph92%30.06 "Hg8 mi
6:54 AM33 °FLight snow. Fog.6 mph96%30.07 "Hg4 mi
Weather by CustomWeather, © 2014

See weather overviewHow to use our weather pages